EW6113 Weather Reports


Display with metric or nautical units.
time (UTC)temp
F
wind
direction
speed
MPH
gust
MPH
rain 1hr
in
rain 24hr
in
rain mn
in
humidity
%
barometer
mb
20260504221538 62 74 8.0 14.0 0.00 0.00 0.00 72 1015.6
20260504220023 62 175 7.0 15.0 0.00 0.00 0.00 72 1015.6
20260504214520 61 130 8.0 15.0 0.00 0.00 0.00 74 1015.6
20260504213020 60 111 10.0 14.0 0.00 0.00 0.00 73 1015.9
20260504211519 60 78 9.0 14.0 0.00 0.00 0.00 74 1016.0
20260504210022 61 92 7.0 15.0 0.00 0.00 0.00 72 1016.0
20260504204519 60 80 6.0 13.0 0.00 0.00 0.00 69 1015.8
20260504203017 61 121 7.0 12.0 0.00 0.00 0.00 67 1015.8
20260504201517 61 106 5.0 11.0 0.00 0.00 0.00 65 1015.6
20260504200017 61 54 5.0 12.0 0.00 0.00 0.00 65 1015.6
20260504194517 62 84 6.0 15.0 0.00 0.00 0.00 62 1015.6
20260504193015 61 61 6.0 12.0 0.00 0.00 0.00 66 1015.7
20260504191522 61 74 6.0 13.0 0.00 0.00 0.00 65 1015.7
20260504190014 60 62 7.0 14.0 0.00 0.00 0.00 66 1015.7
20260504184517 60 82 5.0 14.0 0.00 0.00 0.00 67 1015.6
20260504183012 61 25 6.0 13.0 0.00 0.00 0.00 65 1015.6
20260504181516 61 70 6.0 12.0 0.00 0.00 0.00 64 1015.6
20260504180016 62 103 7.0 11.0 0.00 0.00 0.00 64 1015.7
20260504174509 62 94 6.0 10.0 0.00 0.00 0.00 64 1015.6
20260504173010 62 101 3.0 9.0 0.00 0.00 0.00 65 1015.6
20260504171507 61 55 4.0 11.0 0.00 0.00 0.00 65 1015.6
20260504081505 47 273 0.0 0.0 0.00 0.00 0.00 91 1015.7
20260504044540 53 51 1.0 3.0 0.00 0.00 0.00 85 1015.4
20260504043039 54 51 0.0 0.0 0.00 0.00 0.00 83 1015.3
20260504041534 54 51 0.0 3.0 0.00 0.00 0.00 83 1015.1
20260504040056 55 54 0.0 4.0 0.00 0.00 0.00 83 1014.8
20260504034531 55 78 0.0 3.0 0.00 0.00 0.00 82 1014.7
20260504033034 56 82 2.0 5.0 0.00 0.00 0.00 81 1014.6
20260504031530 56 76 1.0 6.0 0.00 0.00 0.00 80 1014.4
20260504030029 57 67 3.0 6.0 0.00 0.00 0.00 79 1014.4
20260504024528 58 87 2.0 8.0 0.00 0.00 0.00 78 1014.2
20260504023027 58 116 2.0 7.0 0.00 0.00 0.00 77 1014.2
20260504021528 59 108 3.0 9.0 0.00 0.00 0.00 77 1014.2
20260504020027 59 97 5.0 12.0 0.00 0.00 0.00 75 1014.1
20260504014527 60 110 4.0 14.0 0.00 0.00 0.00 72 1014.0
20260504013025 60 82 8.0 14.0 0.00 0.00 0.00 73 1014.0
20260504011524 61 92 6.0 11.0 0.00 0.00 0.00 70 1014.1
20260504010023 61 97 9.0 14.0 0.00 0.00 0.00 70 1014.2
20260504004533 61 98 6.0 14.0 0.00 0.00 0.00 71 1014.0
20260504003021 60 110 11.0 15.0 0.00 0.00 0.00 70 1013.9
20260504001521 61 121 7.0 15.0 0.00 0.00 0.00 70 1013.9
20260504000021 62 105 8.0 15.0 0.00 0.00 0.00 70 1013.7
20260503234518 61 62 9.0 15.0 0.00 0.00 0.00 69 1013.7
20260503233020 62 99 10.0 15.0 0.00 0.00 0.00 68 1013.7
20260503231516 62 105 8.0 15.0 0.00 0.00 0.00 68 1013.7
20260503230015 62 84 8.0 18.0 0.00 0.00 0.00 66 1013.7
20260503224514 63 115 9.0 17.0 0.00 0.00 0.00 60 1013.7
20260503223014 62 71 7.0 16.0 0.00 0.00 0.00 63 1013.7